Theta_e
302 302 302 302 302 302 302 303 303 303 303 303 303 304 304 303 303 303 303 303 303 303 303 303 303 304 304 305 305 305 305 305 305 304 304 304 303 304 304 304 304 303 303 303 302 302 302 302 301 301 300 300 300 300 300 300 300 300 300 299 299 299 299 299 298 298 298 298 298
302 302 302 301 301 302 302 303 303 303 303 304 304 303 303 303 303 302 302 303 303 303 303 303 303 304 304 304 304 304 304 304 304 304 303 303 303 303 303 303 303 303 303 303 303 302 302 302 301 301 300 300 300 300 300 300 301 300 300 299 299 299 299 299 298 299 299 298 298
302 302 302 302 302 302 302 302 303 303 304 304 304 303 303 303 302 302 302 302 302 303 303 302 303 303 303 304 304 304 304 303 303 303 303 303 303 303 303 303 303 303 303 303 303 303 302 302 302 301 301 300 300 300 300 300 301 300 299 299 299 299 299 298 299 299 299 298 298
303 302 302 302 302 303 303 302 303 303 303 303 303 303 302 302 302 302 302 302 302 302 302 302 303 303 303 303 303 303 303 303 303 302 302 302 302 303 303 303 303 303 303 303 303 303 303 303 302 301 301 301 301 300 300 300 300 300 300 300 300 300 299 299 299 299 298 298 298
303 303 303 303 303 303 303 303 302 302 302 302 302 301 301 301 301 301 301 301 301 302 302 302 302 302 302 302 302 302 302 303 302 302 302 302 302 303 303 303 303 303 303 304 303 303 303 303 302 302 301 301 301 301 301 301 301 300 300 300 300 300 299 299 299 299 299 298 298
303 303 303 303 303 303 303 302 302 302 302 302 301 301 301 301 301 301 301 301 301 302 302 302 302 302 302 302 302 302 302 302 302 302 302 302 302 303 303 303 303 304 304 304 304 304 303 303 302 301 301 301 301 301 301 301 301 300 300 300 300 300 300 299 299 299 299 298 298
302 303 303 303 303 303 303 302 302 302 302 301 301 301 301 301 301 301 302 301 301 302 302 302 302 301 301 301 301 301 301 301 301 302 302 302 302 303 303 303 303 303 303 303 303 303 303 302 301 301 301 301 300 301 301 301 301 300 300 299 300 300 300 300 299 299 299 299 298
303 303 303 303 303 303 303 302 302 302 301 301 301 301 301 301 301 301 301 301 301 301 301 301 301 301 301 301 301 301 301 301 301 301 301 301 302 302 302 302 303 303 303 303 303 302 302 302 301 301 300 300 300 300 301 301 301 300 300 299 300 300 300 300 300 300 299 298 298
303 303 303 303 303 303 303 302 302 302 301 301 301 301 301 302 302 301 301 301 301 301 301 301 301 301 301 301 300 300 300 300 300 300 301 301 301 301 302 302 302 302 302 302 302 302 302 301 301 300 300 300 300 300 300 301 300 300 300 299 299 299 300 300 300 300 299 299 298
302 303 303 303 302 302 302 302 302 301 301 301 301 302 302 302 302 301 301 301 301 301 301 300 301 301 300 300 300 300 300 300 300 300 300 301 301 301 301 301 301 301 301 301 301 301 301 300 300 300 300 300 300 300 300 300 300 300 299 299 299 299 299 299 299 299 299 299 298
302 302 302 302 302 302 302 301 301 301 301 301 301 302 302 301 301 301 301 301 301 300 300 300 300 300 300 300 300 300 300 300 300 300 300 300 300 300 300 300 301 301 301 301 300 300 300 299 299 299 300 299 300 300 300 300 299 299 299 298 298 298 298 298 298 298 298 298 298
301 302 301 301 302 301 301 301 301 301 301 301 301 301 301 301 301 301 301 301 300 300 300 300 300 300 300 300 300 300 300 300 299 300 299 299 300 300 300 300 300 300 300 300 300 300 299 299 298 298 298 298 298 299 299 299 298 298 298 298 298 297 297 297 298 298 297 297 297
301 301 301 301 301 301 301 301 301 300 301 301 301 301 301 301 301 301 300 300 299 299 300 300 300 300 300 299 299 299 299 299 299 299 299 299 299 299 299 299 299 300 300 300 299 299 298 298 298 298 297 297 297 298 298 298 297 297 297 297 297 296 296 297 297 297 297 297 296
301 301 301 301 301 301 300 300 300 300 300 300 300 300 300 300 300 300 300 299 299 299 299 299 299 299 299 299 299 299 299 299 298 298 298 298 298 298 298 298 299 299 299 299 299 298 298 298 297 297 297 297 297 297 297 297 297 296 296 296 295 295 296 296 296 296 296 296 295
300 301 301 301 301 300 300 300 300 300 300 300 300 300 300 300 300 300 299 299 299 299 299 299 299 299 299 299 298 298 298 298 298 298 297 298 298 298 298 298 298 299 299 299 298 298 298 297 297 297 296 296 296 296 296 296 296 296 296 295 295 295 295 295 295 295 295 294 294
300 300 300 300 300 300 300 299 299 299 299 299 299 299 299 299 299 299 299 298 298 298 298 298 298 298 298 298 298 298 298 297 297 297 297 297 297 297 297 297 298 298 298 298 298 297 297 297 296 296 296 296 296 296 296 296 295 295 295 295 295 295 295 295 295 294 294 293 293
299 300 300 300 300 299 299 299 299 299 299 299 299 299 298 298 298 298 298 298 297 297 297 297 297 297 297 297 298 297 297 297 297 297 296 296 297 297 297 297 297 298 298 298 297 296 296 296 296 296 296 296 295 294 294 294 294 294 294 294 294 294 294 294 294 293 292 293 293
299 299 299 299 299 299 299 299 298 298 298 298 298 298 298 298 298 297 297 297 297 297 297 297 297 297 297 297 297 297 297 296 296 296 296 296 296 297 296 297 298 298 297 297 296 296 295 295 295 295 295 295 294 294 293 293 293 293 293 293 293 293 293 293 292 292 292 292 292
299 299 299 299 299 298 298 298 298 298 297 297 297 297 297 297 297 297 297 297 297 297 296 296 296 296 296 296 296 296 296 296 296 296 296 296 296 296 296 297 297 297 296 295 295 295 295 294 294 294 294 294 294 294 293 293 293 293 293 293 293 293 292 292 292 292 293 293 292
298 298 298 298 298 298 297 297 297 297 297 297 297 297 296 296 297 296 296 296 296 296 296 296 296 296 296 296 296 296 296 296 296 296 296 296 296 296 296 296 296 296 294 292 293 294 294 294 293 293 293 293 293 293 293 293 293 293 293 293 293 293 292 292 293 293 293 293 292
298 298 298 298 297 297 297 297 297 296 296 296 296 296 296 296 296 296 296 296 296 296 296 295 295 295 295 295 295 295 295 296 296 295 295 296 296 296 297 297 296 295 293 292 292 292 293 293 293 293 292 292 292 291 291 292 292 292 292 292 292 293 293 293 293 293 293 293 293
297 297 297 297 297 297 296 296 296 296 296 296 296 296 295 295 295 295 296 296 296 295 295 295 295 295 295 295 295 295 295 295 295 295 295 295 295 296 296 296 295 294 293 291 290 290 291 292 293 292 291 291 290 289 290 291 291 291 291 292 292 292 293 293 293 293 294 294 293
297 297 297 297 296 296 296 296 295 295 295 295 295 295 295 295 295 295 295 295 295 295 295 295 295 295 295 295 295 295 294 294 294 294 295 295 295 295 296 295 295 293 292 291 290 289 290 291 291 290 289 289 288 288 290 291 290 290 290 291 291 291 292 293 293 294 294 294 294
296 296 296 296 296 296 295 295 295 295 294 294 295 295 294 294 295 295 295 294 294 294 294 294 294 294 294 294 294 294 294 294 294 294 294 294 294 294 294 294 294 293 292 291 291 291 291 291 290 289 289 288 289 290 291 289 290 290 290 290 291 292 292 293 293 294 294 294 294
296 295 295 295 295 295 295 294 294 294 294 294 294 294 294 294 294 294 294 294 294 294 294 294 294 294 294 294 294 294 293 293 293 294 294 293 293 293 293 292 292 292 292 292 293 293 294 293 293 291 291 290 290 290 290 289 290 290 290 291 291 291 292 293 293 293 294 294 294
295 295 295 294 294 294 294 294 294 294 294 294 294 294 294 293 293 294 293 293 293 293 294 294 293 293 293 293 293 293 293 293 293 293 293 292 292 292 292 291 291 291 292 293 293 294 294 294 294 293 292 291 291 291 290 290 290 290 291 291 291 292 292 292 293 293 294 294 294
294 294 294 294 294 293 293 293 293 293 293 293 293 293 293 293 293 293 293 293 293 293 293 293 293 293 293 292 292 292 292 292 292 292 292 292 291 291 291 291 291 291 291 292 293 294 294 295 295 295 294 292 291 291 291 291 291 291 292 292 292 292 292 292 293 293 293 294 294
293 293 293 293 293 293 293 293 293 293 293 293 293 293 293 293 293 292 292 292 292 292 292 292 292 292 292 292 291 291 291 291 291 291 291 291 291 291 290 291 291 291 292 293 294 294 294 295 295 295 294 293 291 290 289 290 291 292 292 293 293 293 293 293 294 294 294 295 295
293 292 292 292 292 292 292 292 292 292 292 292 292 292 292 292 292 292 292 292 292 291 291 291 292 291 291 291 291 291 291 291 291 291 291 291 290 290 290 290 290 291 292 293 294 294 294 294 294 294 294 294 293 292 292 292 292 293 293 293 293 294 294 294 294 294 295 295 295
292 292 292 292 292 292 292 292 292 292 292 292 292 292 292 292 291 291 291 291 291 291 291 291 291 290 290 290 290 290 290 290 290 290 290 290 290 290 290 290 290 291 292 293 293 294 294 294 294 294 294 294 294 292 292 292 292 293 293 294 294 294 294 294 294 294 295 295 295
292 292 292 292 291 291 291 291 292 292 292 292 291 291 291 291 291 291 291 291 291 291 291 291 290 290 290 290 290 290 290 290 290 290 290 290 290 290 290 290 290 290 291 293 293 293 294 294 294 294 294 295 294 293 292 292 293 293 293 293 294 294 294 295 294 294 295 295 295
292 292 291 291 291 291 291 291 291 291 291 291 291 291 291 290 290 290 291 291 290 290 290 290 290 289 290 290 290 290 290 290 290 290 290 290 290 290 290 290 290 290 291 292 293 293 293 294 294 294 294 295 294 293 293 292 293 293 293 293 294 294 294 294 294 294 295 295 295
291 291 291 291 291 291 291 291 291 291 291 291 290 290 290 290 290 290 291 290 290 290 290 289 289 289 289 289 289 289 289 289 290 290 290 290 290 289 289 289 290 290 291 292 293 293 293 293 294 294 294 295 294 293 293 293 293 293 293 294 294 294 294 294 295 295 295 295 295
291 291 291 290 290 290 290 291 291 290 290 290 290 290 290 290 290 290 290 290 290 290 290 289 289 289 289 289 289 289 289 289 289 289 289 289 289 289 289 289 289 291 292 292 292 293 293 293 294 294 294 294 294 293 293 293 293 293 293 294 294 294 295 295 294 294 294 295 295
291 290 290 290 290 290 290 290 290 290 290 289 289 290 290 290 290 289 290 290 290 289 289 289 289 289 289 289 289 289 289 289 289 289 289 289 289 289 289 289 289 290 291 292 292 293 293 293 293 294 294 294 293 293 293 293 293 293 293 293 294 294 294 295 294 294 294 294 295
291 290 290 290 290 290 290 290 289 289 289 289 289 289 289 289 289 289 289 290 289 289 289 289 289 289 289 289 289 289 289 289 289 289 289 289 289 288 288 288 289 290 291 292 292 292 293 293 293 294 294 293 293 292 293 293 293 293 293 293 294 294 295 295 295 295 295 294 295
291 290 290 289 289 289 289 289 289 289 289 289 289 289 289 289 289 289 289 289 289 289 289 289 289 289 289 289 289 289 289 289 289 288 288 288 288 288 288 287 288 289 290 291 292 292 293 293 293 294 293 292 292 292 292 292 293 293 293 293 293 294 295 295 296 295 294 293 294
291 290 290 289 289 289 289 289 289 288 288 288 289 289 289 289 289 289 289 289 289 288 288 288 288 288 288 288 288 288 289 289 289 288 288 288 288 288 287 287 288 289 290 291 292 292 293 293 293 294 293 292 292 292 292 292 292 293 293 293 294 294 295 296 296 296 295 293 295
290 290 290 289 289 289 289 288 288 288 288 288 288 289 289 289 289 289 289 289 289 288 288 288 288 288 288 288 288 288 288 288 289 288 288 287 288 288 288 287 288 288 290 291 292 292 293 293 293 294 293 292 292 292 292 292 292 292 293 293 294 294 295 296 296 296 296 295 296
290 290 290 289 289 289 288 288 288 288 288 288 288 288 288 289 289 289 289 289 289 289 288 288 288 288 288 288 288 288 288 288 288 288 288 287 288 288 288 288 288 289 290 291 291 292 293 293 294 294 294 293 292 293 293 293 292 293 293 293 294 294 295 296 296 296 296 296 296
290 290 289 289 289 289 288 288 288 288 289 288 288 288 289 289 289 289 289 289 289 288 288 288 288 288 288 288 287 287 287 287 287 288 288 288 288 289 289 288 288 289 290 291 291 292 293 293 294 294 294 293 293 293 293 293 293 293 293 293 294 294 294 295 295 295 295 295 296
Wind_Speed
2 2 2 2 2 3 3 3 3 4 4 4 5 5 6 6 6 6 6 6 6 6 6 7 7 8 9 11 12 12 12 12 12 12 12 12 12 12 12 12 12 12 12 12 12 12 11 11 10 9 8 8 9 10 10 10 11 12 12 13 12 12 14 15 15 16 18 18 15
2 2 2 2 3 3 3 3 3 4 4 4 5 5 6 6 6 6 6 7 6 6 6 7 7 9 10 11 11 11 11 11 12 12 12 12 12 13 12 12 12 12 12 12 12 11 10 11 10 9 8 8 9 10 10 10 11 12 14 15 13 12 12 13 14 16 17 17 16
2 2 2 3 3 3 3 3 4 5 5 5 5 5 6 6 6 6 6 7 7 7 7 6 7 9 10 11 10 10 10 10 11 11 11 11 12 12 12 12 12 12 12 12 12 11 11 11 10 9 8 8 9 10 10 11 12 12 13 15 12 11 10 10 12 13 13 12 14
2 2 3 3 4 4 4 4 5 6 6 6 6 6 6 6 5 6 6 7 8 8 7 7 8 8 9 10 10 10 10 10 11 11 11 11 12 12 12 12 13 13 13 12 12 13 12 12 10 9 9 10 11 11 10 10 11 12 11 12 11 10 11 10 11 10 10 11 13
3 3 3 4 5 5 5 5 6 7 6 6 5 6 6 5 5 6 6 7 7 7 8 9 8 8 9 10 11 12 11 11 11 10 10 11 11 12 12 13 13 12 12 12 12 13 13 13 10 9 9 10 10 10 11 12 12 12 11 9 10 10 10 10 10 10 10 10 11
5 5 5 4 5 6 5 5 7 7 7 6 7 7 7 6 6 6 7 7 8 9 10 10 9 9 9 10 11 11 11 11 10 10 10 11 11 11 12 13 13 12 12 12 12 13 13 12 9 9 9 9 10 11 13 14 13 12 12 11 10 10 10 11 10 10 10 12 13
5 5 6 6 6 6 6 6 7 7 7 7 8 9 9 8 8 9 9 9 8 9 9 8 8 9 9 10 10 11 11 10 10 11 11 11 11 11 12 12 12 12 12 12 12 12 12 11 9 9 9 9 9 11 13 13 13 13 12 12 11 10 10 12 10 10 12 15 16
5 6 6 6 6 7 7 8 7 7 7 7 8 10 11 11 11 11 10 9 8 8 8 7 9 10 10 10 11 11 11 11 11 11 11 11 12 12 12 12 13 13 13 12 12 12 11 10 9 9 9 9 9 10 12 14 14 14 14 14 12 11 10 10 10 11 12 16 17
5 6 6 6 7 7 7 8 8 8 9 9 10 11 11 11 11 11 10 9 8 8 8 8 10 11 11 11 12 11 11 11 11 11 11 11 12 12 12 12 12 13 12 12 12 12 12 10 9 9 9 9 9 10 11 13 14 15 15 14 13 13 12 12 12 13 14 15 16
6 6 7 7 7 8 8 9 9 9 10 10 11 11 11 11 11 10 9 8 8 9 9 9 10 11 12 12 12 11 11 11 11 11 12 12 12 13 13 12 12 12 12 12 11 12 12 10 10 10 11 10 12 13 13 14 15 15 14 12 13 14 15 15 15 16 16 16 16
7 7 7 7 8 8 9 9 9 9 9 10 11 11 11 11 10 10 9 8 9 10 11 10 11 11 11 11 11 11 11 10 10 11 12 12 13 13 13 13 13 13 13 12 11 11 10 10 11 12 13 13 13 14 14 15 15 16 15 14 14 16 17 17 16 16 16 16 17
7 8 8 8 8 9 9 9 9 9 9 10 11 11 11 10 10 10 10 10 11 11 11 11 11 11 11 10 11 11 11 11 12 12 12 13 13 14 14 14 14 13 13 13 12 10 10 11 12 14 15 15 13 12 13 15 15 16 16 16 16 16 17 17 17 16 15 15 16
8 8 8 8 9 9 9 9 8 9 9 10 10 10 10 10 10 11 11 11 11 11 10 10 11 11 11 11 11 11 11 12 12 13 13 13 13 14 14 14 14 14 13 13 12 11 11 12 13 15 16 16 14 13 13 15 15 15 16 16 17 17 17 18 17 16 16 17 16
9 9 9 9 9 9 9 9 8 8 9 10 10 10 10 10 10 10 10 11 11 11 11 11 10 10 10 11 11 12 12 12 13 14 14 14 14 14 14 14 14 13 12 12 12 13 13 14 14 15 16 17 16 16 15 15 15 15 15 16 17 17 18 18 18 17 17 17 17
9 10 10 10 10 9 9 9 8 8 9 10 10 10 10 10 10 10 10 11 11 11 11 10 10 10 11 12 13 13 13 13 14 14 15 15 15 14 14 14 14 13 13 12 13 13 14 15 16 16 16 17 17 17 16 16 15 15 15 16 17 17 18 18 18 17 16 16 15
10 10 10 10 10 10 9 9 8 8 9 10 10 10 10 10 10 10 10 11 11 10 10 11 11 11 11 12 13 13 14 14 14 14 15 15 15 15 15 15 15 14 13 13 14 14 15 15 16 16 16 16 16 16 16 16 16 16 16 17 17 18 18 18 17 17 16 15 16
11 11 11 11 11 11 11 10 9 9 10 11 11 11 11 10 10 10 11 11 11 11 12 13 12 12 12 12 12 12 13 13 13 14 14 14 15 15 15 15 15 14 13 13 14 16 16 16 16 16 16 15 15 15 15 15 16 16 17 18 18 18 18 18 16 15 15 15 16
11 11 11 11 12 12 12 12 11 11 11 12 12 11 11 10 11 11 11 12 12 13 13 14 13 13 13 13 13 12 12 13 13 14 14 15 15 15 16 16 15 14 13 13 15 16 17 17 17 17 16 16 15 14 14 14 15 16 17 18 18 17 17 16 15 15 15 16 17
12 12 12 12 12 12 12 12 12 12 12 12 12 12 11 12 12 12 12 12 13 13 14 14 14 13 13 14 14 13 12 13 14 15 16 16 16 16 16 16 15 14 13 12 14 15 16 17 17 17 17 16 16 15 15 15 16 16 17 17 17 16 16 15 15 15 16 17 17
12 12 12 12 12 12 13 13 13 12 12 12 12 13 13 13 13 13 13 13 13 14 14 15 14 14 14 15 15 15 14 13 14 15 16 16 16 16 16 16 15 14 12 12 13 14 15 16 17 18 18 17 17 17 18 17 18 18 18 16 15 15 15 15 15 16 17 17 17
12 12 12 12 12 12 13 12 12 13 13 13 13 13 13 13 13 14 14 14 14 14 15 15 15 15 15 15 16 16 15 13 14 15 16 16 16 16 15 15 14 13 12 11 12 13 14 15 17 17 17 17 18 17 17 17 18 18 18 16 16 16 16 16 17 17 17 17 17
12 12 12 12 12 12 12 12 12 13 13 13 13 13 14 14 14 14 14 14 14 14 15 15 15 16 16 16 16 16 16 14 15 15 16 15 15 15 15 14 14 14 13 12 11 12 13 15 16 16 16 16 16 16 16 18 18 18 18 18 18 18 18 18 18 18 18 17 17
12 12 12 11 12 12 12 12 12 13 13 13 13 13 14 14 14 14 14 14 14 14 15 15 15 15 16 16 16 17 17 16 16 16 16 16 16 15 15 14 14 14 14 12 11 11 11 12 13 13 13 13 13 15 17 18 17 16 17 18 18 18 18 19 19 18 18 18 18
12 12 11 10 11 12 12 12 12 13 13 13 13 14 14 14 14 14 14 15 15 15 15 14 14 15 16 17 17 17 17 17 17 17 17 17 16 16 15 14 14 15 14 11 10 11 11 11 11 10 10 10 12 14 15 14 14 14 15 16 17 18 18 18 19 19 19 19 18
12 12 12 11 12 12 12 12 12 13 13 13 13 14 14 14 14 14 14 15 15 16 16 16 16 16 16 16 16 16 17 17 17 16 16 17 17 16 15 14 14 13 12 11 14 17 19 18 15 13 11 10 11 12 12 12 13 14 14 15 16 16 17 18 18 19 19 19 18
12 12 12 12 12 12 13 13 13 13 13 13 13 14 14 14 14 14 15 16 16 16 16 16 16 15 15 15 16 16 16 15 15 15 16 16 17 17 16 14 13 12 10 11 16 20 23 24 23 20 16 12 12 12 12 12 13 13 14 15 15 16 16 17 17 18 18 18 18
12 12 12 12 13 13 13 13 13 13 13 13 14 14 14 14 14 14 15 16 16 16 16 15 15 15 15 14 15 16 15 15 15 15 15 15 16 17 17 15 13 10 10 13 19 22 24 25 25 24 21 16 14 13 12 13 13 13 14 14 15 16 16 17 17 18 18 18 18
13 13 13 13 13 13 13 13 13 13 14 14 14 14 14 15 15 16 16 16 16 15 15 13 13 12 12 12 14 15 16 16 16 15 15 16 17 18 17 16 14 12 13 18 22 24 25 26 26 26 25 21 16 13 12 13 14 14 13 13 14 15 15 15 15 15 16 17 17
13 13 13 13 14 14 14 14 14 14 14 14 14 15 15 15 16 16 16 16 16 15 14 12 11 11 11 12 14 15 16 17 16 15 16 17 17 18 18 17 17 17 19 22 24 25 26 26 27 27 26 24 17 13 11 12 12 12 12 12 12 13 14 14 13 14 14 16 16
13 13 13 14 14 14 14 14 14 14 14 14 14 15 16 16 16 16 17 17 16 16 14 13 12 13 14 15 16 16 16 16 15 15 16 17 18 18 18 18 17 17 19 22 25 26 26 27 27 27 26 26 21 15 12 11 12 12 11 11 12 13 14 14 15 15 15 15 15
13 14 14 14 15 15 15 14 14 14 14 14 15 16 16 16 17 17 17 16 16 16 16 15 16 17 17 17 16 17 17 16 16 16 16 17 18 19 20 20 19 18 19 22 25 26 26 26 26 26 26 26 21 16 12 11 12 12 11 11 13 14 14 14 15 16 16 17 16
13 14 14 15 15 15 15 15 15 15 15 16 16 16 16 17 17 17 17 16 16 17 17 17 18 18 18 18 17 17 17 17 17 17 17 17 18 19 20 20 19 19 20 23 24 25 26 26 26 26 26 26 22 17 14 13 13 13 13 14 16 16 16 14 14 16 17 18 18
14 14 14 15 15 15 15 15 15 15 16 16 16 16 17 17 17 17 16 16 16 17 17 18 18 18 18 18 18 18 18 17 17 18 18 19 19 20 21 20 18 18 20 23 25 26 26 26 27 27 27 27 22 17 14 14 12 12 13 14 15 16 17 17 16 16 17 18 17
14 14 15 15 15 15 15 15 15 16 16 17 17 17 17 17 17 17 17 16 15 16 16 17 17 17 17 17 18 18 18 17 17 18 19 19 20 21 21 19 16 17 20 24 25 26 26 27 27 27 27 26 20 16 14 14 13 13 14 15 16 16 17 17 16 16 16 17 17
14 14 15 15 15 15 16 16 16 16 17 17 17 17 17 17 17 17 17 17 17 16 16 17 17 17 17 17 17 17 18 18 18 19 19 19 20 21 21 20 18 20 23 25 26 26 27 27 27 27 26 23 17 13 13 14 14 14 15 16 17 17 18 17 16 15 15 16 17
14 14 15 16 16 16 16 16 17 17 17 17 18 18 18 17 17 17 17 17 17 17 17 17 17 17 17 17 17 17 17 18 19 19 19 19 20 21 22 22 21 22 24 25 26 26 26 27 27 27 25 20 14 12 11 12 12 13 15 16 17 17 18 17 16 15 14 14 15
14 15 15 16 16 16 17 17 17 17 17 18 18 18 18 18 17 17 16 16 17 17 18 17 17 18 18 18 17 17 17 18 19 20 20 20 20 21 21 22 21 22 23 24 25 26 26 26 27 26 23 17 13 11 11 11 10 12 13 15 16 17 17 16 15 14 13 12 12
14 15 15 16 16 17 17 17 17 17 18 18 18 18 17 17 17 16 16 15 16 17 18 18 18 18 18 18 18 18 18 18 19 20 20 20 20 20 21 22 22 21 21 23 25 26 26 26 26 25 22 17 14 12 11 10 10 11 12 13 14 15 15 13 12 12 12 11 12
15 15 15 16 16 17 17 17 17 18 18 18 18 18 17 17 16 15 15 15 16 17 18 18 18 18 18 19 18 18 19 19 19 19 19 20 20 20 21 22 21 21 21 22 24 25 26 26 26 26 23 18 14 12 10 10 11 12 12 12 12 13 14 13 11 11 11 12 15
15 15 15 16 16 17 17 17 17 17 17 17 18 18 17 17 16 16 16 15 16 16 17 18 19 19 18 18 18 19 19 19 18 19 19 19 20 21 22 21 21 21 21 22 24 25 25 25 26 25 23 17 13 11 9 9 10 11 12 11 10 10 11 11 11 10 10 11 14
15 15 16 16 16 16 17 18 18 17 17 17 17 17 17 16 16 16 16 15 16 16 16 16 18 19 19 18 17 18 19 20 19 19 19 20 20 20 20 20 20 20 21 21 23 24 25 25 25 25 23 18 13 10 9 9 10 11 12 11 10 9 10 10 10 10 10 11 11
Wind_Direction
273 276 279 284 284 284 284 283 282 282 283 285 290 294 295 295 295 295 294 294 293 293 294 294 295 295 296 298 299 298 296 293 289 283 278 272 269 267 265 263 259 255 253 252 252 251 250 248 246 244 243 242 244 245 245 244 244 244 244 243 244 244 243 243 242 242 241 241 241
282 280 279 275 277 279 281 282 281 279 278 279 286 291 295 295 294 294 293 292 291 292 292 292 292 294 296 298 299 299 297 295 291 287 281 276 272 269 266 264 262 259 257 255 255 253 252 249 247 246 244 242 243 244 244 242 242 244 245 245 245 246 245 245 244 244 244 244 244
294 286 279 272 275 279 281 282 286 289 291 290 292 293 294 293 292 291 291 290 290 290 290 289 291 293 295 298 298 298 297 295 292 288 283 278 273 269 266 264 262 260 258 257 255 254 253 252 250 248 246 244 243 244 245 244 243 244 246 246 246 246 246 246 246 246 246 246 244
304 298 293 291 295 297 297 296 298 301 303 303 300 295 292 289 287 286 287 288 289 288 288 290 292 295 296 297 298 297 296 294 291 287 283 278 274 270 267 265 263 261 259 257 255 255 254 254 253 251 249 249 248 248 247 246 245 246 247 247 247 247 247 247 247 246 245 246 245
319 316 313 308 310 309 307 303 303 303 304 302 298 293 288 285 284 285 286 288 289 289 291 293 293 294 294 295 296 296 295 294 290 286 281 277 274 271 268 265 264 263 261 259 257 256 256 255 255 253 252 251 250 249 249 250 250 250 250 249 248 247 247 248 247 246 246 245 244
325 322 319 315 312 309 305 302 302 301 300 296 292 290 289 288 288 289 290 290 290 291 292 293 291 291 291 293 294 295 295 294 290 285 281 278 276 273 272 270 268 267 266 263 261 259 258 256 256 254 253 253 253 252 252 252 253 253 252 251 249 248 248 248 247 246 246 245 245
318 317 315 315 313 310 307 305 303 301 297 292 290 290 291 293 293 293 293 292 292 292 292 292 291 290 292 294 294 294 294 293 290 287 284 281 278 277 275 274 273 271 269 268 266 263 260 257 256 255 254 253 254 253 253 252 253 253 253 253 251 250 249 250 249 248 248 248 247
309 309 311 313 311 308 307 306 304 301 297 292 291 292 294 295 295 294 294 292 290 291 291 291 291 291 292 293 292 292 291 290 289 287 285 282 281 280 279 278 277 274 272 270 269 267 264 260 258 257 256 255 255 255 255 254 254 254 255 255 256 254 251 250 250 249 249 250 249
308 310 312 311 309 308 308 306 303 299 296 293 292 293 295 295 294 293 292 291 291 292 292 290 291 291 291 290 289 289 288 288 287 286 285 283 283 282 281 281 280 278 277 275 273 271 268 265 260 258 257 257 258 259 259 259 258 258 258 258 259 258 256 254 252 252 251 251 250
311 313 313 311 311 310 309 306 302 298 295 293 294 294 295 295 293 292 292 292 292 291 290 289 291 291 291 290 288 287 286 285 285 284 284 283 282 282 282 281 281 281 280 279 279 277 275 271 267 264 263 262 263 264 265 264 262 261 260 260 261 261 261 259 257 256 256 255 253
310 312 312 311 312 310 308 306 302 299 296 295 296 296 296 295 294 293 293 292 291 289 289 290 291 291 291 289 288 287 286 285 284 284 283 283 282 282 281 281 281 281 281 281 281 280 278 275 272 270 269 268 268 268 268 266 265 263 262 261 262 262 262 262 260 260 260 260 259
310 310 309 308 308 307 306 304 301 299 297 296 296 297 297 296 296 295 295 293 291 290 291 292 292 291 290 288 287 287 286 286 285 285 284 283 283 282 282 281 280 280 279 279 279 278 276 273 272 272 272 271 270 270 269 269 267 266 265 264 263 262 262 262 261 261 261 261 261
310 308 307 307 306 305 304 302 300 298 297 296 297 298 298 297 297 297 296 294 293 294 295 295 293 291 289 288 288 289 289 288 287 286 285 284 284 283 283 282 281 280 279 279 278 277 275 274 273 273 273 273 272 271 270 270 269 268 267 266 265 264 263 263 262 262 262 262 262
308 307 306 307 306 305 303 301 299 298 297 298 298 299 299 299 299 299 298 297 297 297 297 297 294 291 290 291 291 291 290 289 288 286 285 284 284 283 283 282 281 280 278 277 277 276 275 275 275 275 275 275 274 272 271 270 269 268 267 266 266 265 265 265 264 264 263 262 262
308 308 308 307 306 305 303 303 300 299 299 299 300 301 302 301 301 301 301 300 300 299 298 296 295 294 293 293 293 292 291 290 288 287 286 285 284 284 283 282 282 280 278 276 276 276 276 276 276 275 275 275 274 273 272 271 269 267 266 265 265 265 265 265 266 265 264 262 262
309 309 309 308 308 307 305 305 302 301 301 301 303 304 303 302 303 303 302 301 300 299 297 297 297 296 296 294 293 292 291 290 289 288 287 287 286 285 284 283 282 280 278 276 276 276 276 276 276 276 276 275 274 273 272 271 269 268 267 266 266 266 266 266 266 265 264 262 262
310 310 310 309 309 308 307 307 305 304 303 304 304 304 303 303 303 302 301 300 299 298 297 297 297 296 295 294 293 292 291 290 289 288 288 287 287 286 285 284 282 280 277 275 276 276 277 277 277 277 277 275 273 272 270 269 268 267 267 267 266 266 265 265 265 264 263 262 261
310 310 310 310 310 309 308 308 306 305 304 304 303 303 302 302 302 301 299 298 297 297 297 297 296 295 294 293 293 291 290 290 289 288 287 287 286 285 284 283 281 278 276 273 274 276 277 278 279 278 277 276 274 272 270 268 267 267 267 266 266 265 264 263 262 262 261 261 261
310 310 311 311 311 310 309 308 306 305 304 304 303 302 301 301 300 299 298 297 297 296 297 296 296 294 293 292 291 290 289 288 287 287 286 285 285 284 283 282 280 278 276 273 274 275 276 278 279 279 278 277 275 273 272 270 269 269 268 267 265 264 263 261 260 259 259 260 260
310 311 311 312 311 310 308 307 306 305 304 303 302 302 301 300 299 298 298 297 298 297 297 296 295 294 292 292 291 290 289 287 287 286 285 285 284 283 282 282 281 279 276 272 273 273 275 276 277 277 277 276 275 274 274 273 272 271 271 269 267 265 264 262 260 259 258 258 257
310 311 312 312 310 309 307 306 305 304 303 302 301 301 300 300 299 298 298 298 298 297 296 294 293 293 292 292 291 290 289 287 286 286 285 284 283 282 282 282 281 279 276 272 272 272 273 274 275 275 276 275 274 274 274 274 274 274 273 271 270 269 267 265 263 262 259 257 255
310 311 311 310 308 306 305 304 304 303 302 301 300 300 300 300 299 299 299 298 297 296 295 294 293 293 292 292 291 291 290 288 286 285 285 284 283 283 283 283 282 281 279 275 273 272 272 273 273 273 273 273 272 271 271 272 273 273 273 272 271 270 269 267 266 265 263 260 256
310 310 309 307 305 304 303 302 302 301 300 300 300 300 300 300 299 299 299 298 296 295 295 294 293 293 292 291 291 290 289 288 286 285 285 285 285 285 285 285 284 282 280 277 274 271 271 272 271 270 268 267 267 267 267 268 268 268 269 269 269 268 267 266 266 265 264 262 260
309 308 307 305 304 302 302 301 300 300 299 299 300 300 300 299 299 299 298 297 296 295 294 294 293 292 292 291 290 289 288 287 287 286 286 285 286 286 286 286 284 282 280 278 275 274 273 274 273 271 267 263 264 265 266 266 265 264 265 265 266 266 266 266 266 265 265 264 263
307 306 305 302 302 301 300 300 299 299 299 299 299 299 299 298 298 298 297 296 296 295 294 294 293 292 292 291 290 288 287 287 287 288 287 287 287 287 287 287 285 283 281 279 278 279 279 280 280 279 278 274 272 271 270 267 265 265 265 265 265 267 268 268 267 267 267 267 266
307 305 303 302 301 300 299 298 298 298 298 298 298 297 297 298 297 297 297 296 295 295 295 294 294 293 292 291 290 289 289 288 289 289 289 289 289 288 287 285 284 282 281 279 280 281 282 282 283 283 282 281 279 278 276 274 270 268 267 266 267 268 269 269 269 269 269 268 266
306 304 302 301 299 298 298 298 298 297 297 297 297 297 298 298 298 297 296 296 295 295 295 294 294 293 292 291 290 290 290 290 291 290 289 289 288 288 287 285 283 281 278 278 281 282 283 284 285 285 285 284 282 281 280 280 277 274 271 269 269 269 269 269 270 270 270 268 266
305 303 301 300 299 298 298 298 298 298 298 298 298 299 298 298 297 296 296 296 296 296 296 295 294 293 293 291 292 292 292 292 292 290 289 288 287 287 287 287 286 283 281 282 285 286 287 288 288 288 288 287 285 282 279 278 277 275 272 270 269 269 269 269 270 270 271 270 269
302 301 300 299 299 298 299 299 299 299 299 300 299 299 299 298 297 297 297 297 298 298 298 297 296 295 293 292 293 293 293 292 291 290 290 290 289 289 288 288 288 287 287 288 289 290 290 290 290 289 289 288 286 283 279 277 276 275 273 271 271 272 272 272 272 273 274 275 274
301 301 300 300 299 299 300 300 300 300 300 300 300 300 299 299 298 298 299 299 299 299 298 298 297 295 293 293 293 293 293 292 292 292 292 292 291 291 290 290 290 289 289 290 290 290 290 290 290 290 289 289 287 284 280 277 276 275 274 273 272 272 272 272 272 273 274 275 277
301 301 301 301 300 300 300 301 301 301 301 300 300 300 300 300 300 300 300 301 300 299 298 297 295 294 294 293 293 293 293 294 294 294 293 293 293 292 292 291 291 290 289 290 290 290 291 291 291 291 291 290 289 285 280 277 276 275 274 273 273 273 272 272 272 273 274 274 274
302 302 302 301 301 301 301 301 302 302 302 301 301 301 300 300 300 301 301 301 300 300 299 298 297 296 296 296 295 295 295 295 295 295 294 294 293 293 293 292 292 291 291 291 292 292 292 292 292 292 292 291 289 286 282 279 277 275 274 273 273 273 272 272 271 272 273 273 272
303 303 302 301 301 301 301 302 302 303 303 302 302 301 301 301 301 301 301 301 300 299 299 299 298 298 298 298 297 297 296 296 296 295 295 295 294 293 293 293 292 292 292 293 293 293 293 293 293 293 292 292 290 287 283 280 277 275 274 275 275 275 275 274 272 272 271 272 273
303 302 301 300 301 301 302 303 304 304 304 303 302 302 302 302 302 302 301 301 300 299 299 298 298 297 297 297 297 297 297 297 296 296 296 296 295 295 294 294 293 293 294 295 294 294 294 294 293 293 293 292 290 287 283 281 278 277 276 277 278 278 277 275 272 270 269 270 271
301 301 301 302 302 303 304 305 305 305 304 303 303 303 302 302 302 302 302 302 301 300 298 297 297 296 296 296 296 296 297 297 297 297 297 297 297 296 295 294 293 294 295 296 295 295 295 294 293 293 293 293 290 287 283 281 278 278 278 278 278 278 276 274 271 268 267 267 269
302 303 303 304 304 305 305 305 305 304 304 303 303 303 303 303 302 302 302 302 301 299 298 298 297 297 297 297 297 297 298 298 299 299 299 298 298 297 296 296 295 296 296 296 296 295 294 293 293 293 293 293 290 286 282 279 277 277 277 278 278 277 276 274 272 269 268 266 267
304 304 305 305 305 305 305 305 304 303 303 302 303 303 303 303 302 302 302 302 301 300 299 299 299 299 299 300 299 299 299 299 300 300 300 299 299 298 297 297 296 296 296 296 295 294 293 293 293 293 293 292 289 285 282 278 275 275 276 276 276 276 276 274 272 270 268 264 263
306 305 305 304 304 304 303 303 303 302 302 302 302 302 302 302 301 301 301 301 300 300 299 299 299 299 300 301 300 300 299 299 300 300 300 300 299 298 297 296 296 295 295 294 293 293 292 292 293 293 293 291 288 285 282 278 275 274 274 274 274 274 274 272 271 270 269 265 263
306 305 304 303 302 302 302 302 301 301 301 301 301 301 301 301 300 300 300 300 299 299 299 299 300 300 301 302 301 301 301 301 301 300 299 299 298 297 296 295 294 294 294 293 292 292 292 292 292 292 292 290 287 284 280 276 275 274 273 272 273 273 272 272 271 272 272 270 269
304 304 303 302 301 301 301 300 300 300 300 300 300 300 300 299 299 299 299 298 298 298 299 299 300 300 301 302 302 302 302 302 301 300 298 297 296 295 295 294 293 293 293 292 292 292 291 291 291 292 292 290 286 282 278 275 274 273 273 272 272 273 274 275 276 276 276 275 273
303 303 302 301 300 300 299 299 299 299 298 298 298 298 299 298 298 298 299 299 299 300 300 299 300 301 302 303 302 302 302 302 300 299 298 296 295 295 294 293 293 293 293 293 292 292 292 291 291 292 292 290 286 282 278 276 275 275 275 275 276 278 280 282 282 281 279 277 274